Location: Larrial
(48.2758°N, 4.5331°W)
Time: 02:08:59
(UTC+00:00)

XW-2F - Pass Details

Date: 28 November 2021
Orbit: 495 x 515 km, 97.5° (Epoch: 16 January)

Event Time Altitude Azimuth Distance (km) Brightness Sun altitude
Rises 05:43:36 0° 26° (NNE) 2,650 ? -19.4°
Reaches altitude 10° 05:46:06 10° 42° (NE) 1,758 ? -19.0°
Maximum altitude 05:49:02 21° 93° (E) 1,204 ? -18.5°
Drops below altitude 10° 05:51:57 10° 144° (SE) 1,746 ? -18.1°
Sets 05:54:25 0° 161° (SSE) 2,626 ? -17.7°
